Location: Asheville, NC
(35.6000°N, 82.5500°W)
Time: 10:28:29
(UTC-04:00)

RS-15 - Pass Details

Date: 14 March 2018
Orbit: 1890 x 2154 km, 64.8° (Epoch: 18 June)

Event Time Altitude Azimuth Distance (km) Brightness Sun altitude
Rises 06:21:38 0° 321° (NW) 5,605 10.1 -17.2°
Reaches altitude 10° 06:27:34 10° 342° (NNW) 4,552 9.9 -16.0°
Maximum altitude 06:34:00 16° 16° (NNE) 4,032 10.0 -14.7°
Drops below altitude 10° 06:40:17 10° 51° (NE) 4,427 10.8 -13.4°
Sets 06:45:50 0° 72° (ENE) 5,373 12.2 -12.3°
